ギブス彗星

390P/Gibbs (2020)

English version
Home page
Updated on May 4, 2021

---------------------------------------------------------------------

・ プロフィール

符号 390P/2019 U1
検出日 2019年10月21日
検出光度 18.4等
検出者 A. Fitzsimmons (Asteroid Terrestrial-Impact Last Alert System (ATLAS) search program)

・ 写真集

・ 軌道要素

Epoch 2020 Mar. 12.0 TT = JDT 2458920.5
T 2020 Mar. 22.22676 TT                                 Rudenko
q   1.6998010            (2000.0)            P               Q
n   0.07060996     Peri.  232.33613     +0.88996454     -0.43132873
a   5.7972948      Node   152.28070     +0.44896256     +0.88564765
e   0.7067941      Incl.   18.55954     -0.07997335     +0.17199935
P  14.0
From 318 observations 2006 Nov. 16-2021 Mar. 6, mean residual 0".8.

・ 星図

・ 光度変化

        m1 = 9.7 + 5 logΔ + 15.0 log r(t - 15)

---------------------------------------------------------------------

軌道要素はM.P.E.C. 2021-J28に掲載されたものです。
星図はステラナビゲータ Ver.10 (アストロアーツ) で作成したものです。
光度グラフはComet for Windowsで作成したものです。

---------------------------------------------------------------------

Copyright(C) Seiichi Yoshida (comet@aerith.net). All rights reserved.